Location: Holkham
(52.9500°N, 0.8167°E)
Time: 05:32:02
(UTC+00:00)

Cosmos 2369 - Pass Details

Date: 19 May 2025
Orbit: 839 x 853 km, 71.0° (Epoch: 13 June)

Event Time Altitude Azimuth Distance (km) Brightness Sun altitude
Rises 21:28:44 0° 328° (NNW) 3,418 9.2 -10.6°
Reaches altitude 10° 21:31:14 10° 332° (NNW) 2,477 7.7 -10.9°
Maximum altitude 21:36:53 66° 54° (NE) 923 3.9 -11.3°
Enters shadow 21:41:36 15° 135° (SE) 2,124 5.2 -11.7°
